This is the latest recevied weather packets stored in our database for station/object OH7GGX-14. If no packets are shown the sender has not sent any weather packets the latest 10 day(s).
| Time | Temp. | Humidity | Pressure | Rain* | Wind** | Luminosity | Snow |
|---|---|---|---|---|---|---|---|
| 1777536106 | 5.56° C | 65% | 1020.2 hPa | 0 mm | - | - | - |
| 1777535506 | 5.56° C | 65% | 1020.1 hPa | 0 mm | - | - | - |
| 1777534906 | 5.56° C | 64% | 1020.3 hPa | 0 mm | - | - | - |
| 1777534306 | 5.56° C | 64% | 1020.3 hPa | 0 mm | - | - | - |
| 1777533708 | 5.56° C | 64% | 1020.4 hPa | 0 mm | - | - | - |
| 1777533106 | 5.56° C | 63% | 1020.2 hPa | 0 mm | - | - | - |
| 1777532506 | 5° C | 63% | 1020.2 hPa | 0 mm | - | - | - |
| 1777531906 | 5° C | 63% | 1020.2 hPa | 0 mm | - | - | - |
| 1777531306 | 5° C | 68% | 1020 hPa | 0 mm | - | - | - |
| 1777530706 | 4.44° C | 72% | 1019.9 hPa | 0 mm | - | - | - |
| 1777530106 | 3.89° C | 74% | 1020.1 hPa | 0 mm | - | - | - |
| 1777529506 | 3.89° C | 76% | 1019.9 hPa | 0 mm | - | - | - |
| 1777528906 | 3.33° C | 80% | 1020 hPa | 0 mm | - | - | - |
| 1777528306 | 2.78° C | 85% | 1020.1 hPa | 0 mm | - | - | - |
| 1777527706 | 2.22° C | 88% | 1020.1 hPa | 0 mm | - | - | - |
| 1777527106 | 1.67° C | 92% | 1020.2 hPa | 0 mm | - | - | - |
| 1777526506 | 1.11° C | 97% | 1020.2 hPa | 0 mm | - | - | - |
| 1777525906 | 0.56° C | 99% | 1020.2 hPa | 0 mm | - | - | - |
| 1777525306 | 0° C | 99% | 1020.3 hPa | 0 mm | - | - | - |
| 1777524706 | -0.56° C | 99% | 1020.3 hPa | 0 mm | - | - | - |
| 1777524106 | -1.11° C | 99% | 1020.4 hPa | 0 mm | - | - | - |
| 1777523506 | -1.67° C | 99% | 1020.4 hPa | 0 mm | - | - | - |
| 1777522906 | -2.22° C | 99% | 1020.5 hPa | 0 mm | - | - | - |
| 1777522306 | -2.78° C | 99% | 1020.5 hPa | 0 mm | - | - | - |
| 1777521706 | -3.33° C | 99% | 1020.4 hPa | 0 mm | - | - | - |
* Rain latest hour (hover to see other rain measurements)
** Current wind speed in m/s (hover to see current wind gust speed)